Regional Weather Roundup
Issued by NWS

Home | Current Version | Previous Version | Text Only | Print | Product List | Glossary On
Versions: 1 2 3 4 5 6 7 8 9 10 11 12 13 14 15 16 17 18 19 20 21 22 23 24 25 26 27 28 29 30 31 32 33 34 35 36 37 38 39 40 41 42 43 44 45 46 47 48 49 50
000
ASUS43 KDMX 270907
RWRIA

WEATHER ROUNDUP FOR IOWA
NATIONAL WEATHER SERVICE DES MOINES IA
300 AM CST THU NOV 27 2014

NOTE: "FAIR" INDICATES FEW OR NO CLOUDS BELOW 12,000 FEET WITH NO
SIGNIFICANT WEATHER AND/OR OBSTRUCTIONS TO VISIBILITY.

* - THESE STATIONS ARE NOT NWS STATIONS...THUS NOT UNDER NWS
QUALITY CONTROL.  THEY ALSO DO NOT REPORT WEATHER SUCH
AS PRECIPITATION OR FOG.

IAZ001>003-012>014-020>022-031>034-043>046-271000-
   NORTHWEST IOWA

CITY           SKY/WX    TMP DP  RH WIND       PRES   REMARKS
CARROLL *      PTCLDY     7   1  78 NW12      30.46R WCI  -9
CHEROKEE *       N/A      3  -4  72 N7        30.48R WCI  -9
DENISON *      MOCLDY    10   3  72 N6        30.46R WCI   1
LE MARS *      CLOUDY     7  -2  66 NW6       30.52R WCI  -3
ORANGE CITY *  CLEAR      1  -8  66 CALM      30.48R
SHELDON *      CLEAR      0  -9  65 NW8       30.48R WCI -15
SIOUX CITY     CLEAR     12   1  61 N9        30.52R WCI   0
SPENCER        PTCLDY   N/A N/A N/A N16       30.47R
STORM LAKE *   CLEAR      1  -8  66 N13       30.45R WCI -16
$$

IAZ055>058-069>071-079>083-090>094-271000-
   SOUTHWEST IOWA

CITY           SKY/WX    TMP DP  RH WIND       PRES   REMARKS
ATLANTIC *     CLEAR     10   5  79 W7        30.49R WCI   0
AUDUBON *      CLEAR      9   1  72 NW5       30.46S WCI   0
CLARINDA *     CLOUDY    23  18  80 NW12      30.49S WCI  12
COUNCIL BLFS * CLEAR     16  12  86 NW7       30.47S WCI   6
CRESTON *      CLOUDY    19  16  86 NW15      30.43S WCI   5
HARLAN  *      CLEAR     10   7  85 NW9       30.52R WCI  -2
LAMONI         CLOUDY    23  19  85 N12       30.43R WCI  12
RED OAK *      PTCLDY    18  10  73 N14       30.50R WCI   4
SHENANDOAH *   CLOUDY    21  16  79 N13G18    30.51R WCI   9
$$

IAZ047>049-059>061-072>074-084-271000-
   CENTRAL IOWA

CITY           SKY/WX    TMP DP  RH WIND       PRES   REMARKS
AMES           CLOUDY    13   8  81 NW15      30.44R WCI  -3
ANKENY *       CLOUDY    18  12  79 NW10G18   30.44R WCI   6
CHARITON *     CLOUDY    21  18  86 NW14      30.42R WCI   8
DES MOINES     FLURRIES  18  12  77 N16       30.44R WCI   3
GRINNELL*      CLOUDY    18  14  86 NW18      30.39S WCI   2
KNOXVILLE *    CLOUDY    21  14  73 NW16G25   30.41R WCI   7
MARSHALLTOWN   CLOUDY    15  10  80 NW21      30.40R WCI  -2
PELLA *        CLOUDY    21  16  79 NW18G25   30.43R WCI   6
PERRY *          N/A     12   7  79 NW13      30.46R WCI  -3
$$

IAZ004>006-015-016-023>025-035-036-271000-
   NORTH CENTRAL IOWA

CITY           SKY/WX    TMP DP  RH WIND       PRES   REMARKS
ALGONA *       CLEAR      0  -8  71 NW14      30.45S WCI -19
CLARION *      CLEAR      3  -2  78 NW18      30.43S WCI -17
ESTHERVILLE    PTCLDY    -4  -9  79 NW15      30.45R WCI -25
FORT DODGE *   CLEAR      3  -4  72 NW6       30.46R WCI  -8
MASON CITY     CLEAR      4  -1  80 NW14      30.42R WCI -14
FOREST CITY *  CLEAR      1  -2  85 NW13      30.41R WCI -16
IOWA FALLS *   CLOUDY    10   5  79 NW18      30.43R WCI  -8
$$

IAZ007>011-017>019-026>030-037>042-050>054-066-271000-
   NORTHEAST IOWA

CITY           SKY/WX    TMP DP  RH WIND       PRES   REMARKS
CEDAR RAPIDS   CLOUDY    24  21  88 NW13      30.34R WCI  12
CHARLES CITY * MOCLDY    12   9  85 NW15      30.38R WCI  -4
CLINTON *      PTCLDY    16  12  86 W7        30.33R WCI   6
DECORAH *      CLOUDY    21  14  73 N13       30.32R WCI   9
DUBUQUE        MOCLDY    22  18  85 NW14      30.29R WCI   9
MONTICELLO *   CLOUDY    27  21  80 NW7       30.32R WCI  19
OELWEIN *      FLURRIES  18  14  86 NW20      30.34R WCI   1
WATERLOO       CLOUDY    16  12  84 NW14      30.38R WCI   2
$$

IAZ064-065-067-068-078-271000-
   EAST CENTRAL IOWA

CITY           SKY/WX    TMP DP  RH WIND       PRES   REMARKS
DAVENPORT      MOCLDY    23  19  85 NW13      30.32R WCI  11
IOWA CITY      CLOUDY    26  21  81 NW15      30.37R WCI  14
MT. PLEASANT * CLOUDY    25  23  93 NW8       30.37R WCI  16
MUSCATINE *    CLOUDY    27  21  80 NW10      30.36R WCI  17
QUAD CITIES    CLOUDY    25  20  81 NW8       30.32R WCI  16
$$

IAZ062-063-075>077-085>089-095>099-271000-
   SOUTHEAST IOWA

CITY           SKY/WX    TMP DP  RH WIND       PRES   REMARKS
BURLINGTON     CLOUDY    27  24  89 NW6       30.34R FOG     WCI  20
FAIRFIELD *    CLOUDY    27  21  80 NW16      30.38R WCI  14
FORT MADISON * CLOUDY    28  27  93 NW9       30.36R FOG     WCI  20
KEOKUK *       CLOUDY    28  25  86 NW10G16   30.36R WCI  19
OSKALOOSA *    CLOUDY    21  19  93 NW14      30.40R WCI   8
CENTERVILLE *  CLOUDY    23  23 100 W10       30.42R WCI  12
OTTUMWA        CLOUDY    22  18  85 NW13      30.39R WCI  10
WASHINGTON *   CLOUDY    27  27 100 NW13      30.37R WCI  16
$$

ABBREVIATIONS USED IN REMARKS
   TC - TEMPERATURES IN CELSIUS
  WCI - WIND CHILL INDEX
   HX - HEAT INDEX
  VSB - VISIBILITY
$$




USA.gov is the U.S. government's official web portal to all federal, state and local government web resources and services.